METEOR 1-17 DEB

Satellite information

Favourite Embed

Satellite Type and Status

DEBRISIN ORBIT

Key statistics

Satellite METEOR 1-17 DEB at a glance.

Uptime

18862

Days in orbit

Revolutions

≈ 14.2

Per day

Orbit

LEO

Low Earth Orbit

Inclination

81.2

Latest

Satellite identification and parameters

Extended collection of information and parameters for METEOR 1-17 DEB.

Object identification

Identified? True

Debris? True

Object name: METEOR 1-17 DEB

International designator: 1974-025N

Object number (NORAD): 57957

Object ID (CCSDS): 57957

Country: COMMONWEALTH OF INDEPENDENT STATES (CIS)

Current information (Y/N): Y

RCS size: SMALL

Orbital parameters

Period: 101.481 minutes

Inclination: 81.2122 deg

SMA: 7206.903 km

Apoapsis: 840.29 km

Periapsis: 817.247 km

RAAN: 126.3057 deg

Eccentricy: 0.00159868

Argument of periapsis: 232.9549 deg

Mean anomaly: 127.0165 deg

Mean motion: 14.18991227 rev/day

Mean motion (dot): 0.00002301 rev/day2

B* drag term: 0.0010961464 1/REarth

Two-line elements (TLE)

Creation date: Nov. 28, 2025, 5:28 a.m.

Reference frame: TEME

Reference center: EARTH

Epoch: Nov. 27, 2025, 4:43 p.m. UTC

TLE line 0: 0 METEOR 1-17 DEB

TLE line 1: 1 57957U 74025N 25331.69684432 .00002301 00000-0 10961-2 0 9992

TLE line 2: 2 57957 81.2122 126.3057 0015987 232.9549 127.0165 14.18991227115158

Live tracking on map

Real-time ground track for satellite METEOR 1-17 DEB.

In-orbit conjunctions

A list of the most updated potential collisions computed for object METEOR 1-17 DEB.

Target Orbit TCA Probability of collision Miss distance Type
FENGYUN 1C DEB SSO 2025-11-22 15:18:32 0.0001211056 237.0 (m) DEBRIS
SPOT 3 SSO 2025-10-12 05:46:43 0.0001075305 339.0 (m) PAYLOAD
CZ-6A DEB LEO 2024-11-14 04:33:28 0.0002031369 636.0 (m) DEBRIS
CZ-6A DEB SSO 2024-11-14 00:26:30 0.002690285 147.0 (m) DEBRIS
FENGYUN 1C DEB SSO 2024-11-13 19:20:46 0.0002274527 913.0 (m) DEBRIS

Associated space launch

The Meteor-1 series was the first series of Soviet meteorological satellites.

METEOR 1-17 DEB was lifted into orbit during the mission ‘Vostok 8A92M | Meteor-1 17 (22L)’, on board a Vostok 8A92M space rocket.

The launch took place on April 24, 1974, 11:50 a.m. from 43/4 (43R).

For more information about the launch, click the button.

Launch to space Vostok 8A92M | Meteor-1 17 (22L)
Vostok 8A92M | Meteor-1 17 (22L)

Agency: N/A

Status: Launch Successful

Launch date: April 24, 1974, 11:50 a.m. UTC

Rocket: Vostok 8A92M

Launch pad: 43/4 (43R)

Location: Plesetsk Cosmodrome, Russian Federation

...

Latest news about this satellite

There are no fresh news available about this satellite. Check back as we update our databases every day.


Newsletter sign-up

Weekly statistics, charts and insights to help you stay on top of the space industry.